Location: Lombard
(41.8800°N, 88.0078°W)
Time: 02:01:01
(UTC-06:00)

BlueWalker 3 - Pass Details

Date: 28 January 2026
Orbit: 450 x 461 km, 53.2° (Epoch: 11 February)

Event Time Altitude Azimuth Distance (km) Brightness Sun altitude
Rises 18:18:14 0° 290° (WNW) 2,456 6.5 -14.3°
Reaches altitude 10° 18:21:09 10° 316° (NW) 1,583 4.9 -14.8°
Maximum altitude 18:23:11 14° 351° (N) 1,336 4.1 -15.2°
Enters shadow 18:24:38 12° 17° (NNE) 1,465 4.0 -15.5°
